Location: Martley
(52.2333°N, 2.3667°W)
Time: 10:20:46
(UTC+00:00)

Cosmos 2195 Rocket - Pass Details

Date: 11 December 2019
Orbit: 948 x 993 km, 82.9° (Epoch: 27 January)

Event Time Altitude Azimuth Distance (km) Brightness Sun altitude
Exits shadow 05:21:47 - 348° (NNW) 3,257 7.1 -24.1°
Reaches altitude 10° 05:23:05 10° 347° (NNW) 2,771 6.7 -23.9°
Maximum altitude 05:29:26 73° 264° (W) 1,039 4.4 -22.9°
Drops below altitude 10° 05:35:43 10° 181° (S) 2,746 6.9 -22.0°
Sets 05:38:13 0° 179° (S) 3,686 7.7 -21.6°
